| time (UTC) | temp C | wind direction | speed KPH | gust KPH | rain 1hr cm | rain 24hr cm | rain mn cm | humidity % | barometer mb |
| 20260902034510 | 17 | 130 | 1.6 | 16.1 | 0.00 | 0.00 | 0.00 | 67 | 1016.5 |
| 20260902033017 | 18 | 105 | 3.2 | 17.7 | 0.00 | 0.00 | 0.00 | 66 | 1016.4 |
| 20260902031520 | 18 | 119 | 4.8 | 20.9 | 0.00 | 0.00 | 0.00 | 64 | 1016.3 |
| 20260902030027 | 18 | 46 | 3.2 | 14.5 | 0.00 | 0.00 | 0.00 | 62 | 1016.2 |
| 20260902024528 | 18 | 101 | 6.4 | 20.9 | 0.00 | 0.00 | 0.00 | 61 | 1016.0 |
| 20260902023033 | 19 | 115 | 4.8 | 20.9 | 0.00 | 0.00 | 0.00 | 57 | 1016.0 |
| 20260902021519 | 19 | 116 | 4.8 | 20.9 | 0.00 | 0.00 | 0.00 | 54 | 1015.7 |
| 20260902020023 | 20 | 108 | 6.4 | 24.1 | 0.00 | 0.00 | 0.00 | 53 | 1015.7 |
| 20260902014534 | 20 | 19 | 8.0 | 24.1 | 0.00 | 0.00 | 0.00 | 52 | 1015.7 |
| 20260902013031 | 21 | 137 | 9.7 | 19.3 | 0.00 | 0.00 | 0.00 | 51 | 1015.6 |
| 20260902011534 | 21 | 121 | 9.7 | 22.5 | 0.00 | 0.00 | 0.00 | 50 | 1015.5 |
| 20260902010027 | 21 | 154 | 8.0 | 22.5 | 0.00 | 0.00 | 0.00 | 49 | 1015.4 |
| 20260902004528 | 22 | 119 | 6.4 | 19.3 | 0.00 | 0.00 | 0.00 | 46 | 1015.4 |
| 20260902003033 | 22 | 109 | 6.4 | 24.1 | 0.00 | 0.00 | 0.00 | 47 | 1015.3 |
| 20260902001535 | 22 | 92 | 8.0 | 25.7 | 0.00 | 0.00 | 0.00 | 48 | 1015.3 |
| 20260902000035 | 22 | 121 | 11.3 | 24.1 | 0.00 | 0.00 | 0.00 | 45 | 1015.3 |
| 20260901234523 | 22 | 124 | 4.8 | 22.5 | 0.00 | 0.00 | 0.00 | 45 | 1015.4 |
| 20260901233025 | 22 | 107 | 11.3 | 27.4 | 0.00 | 0.00 | 0.00 | 45 | 1015.3 |
| 20260901231533 | 23 | 135 | 8.0 | 17.7 | 0.00 | 0.00 | 0.00 | 42 | 1015.4 |
| 20260901230041 | 23 | 105 | 4.8 | 17.7 | 0.00 | 0.00 | 0.00 | 41 | 1015.6 |
| 20260901224534 | 23 | 131 | 4.8 | 25.7 | 0.00 | 0.00 | 0.00 | 42 | 1015.5 |
| 20260901223025 | 23 | 119 | 8.0 | 22.5 | 0.00 | 0.00 | 0.00 | 43 | 1015.5 |
| 20260901221533 | 23 | 62 | 8.0 | 17.7 | 0.00 | 0.00 | 0.00 | 44 | 1015.5 |
| 20260901220033 | 23 | 105 | 6.4 | 20.9 | 0.00 | 0.00 | 0.00 | 44 | 1015.7 |
| 20260901214536 | 23 | 112 | 6.4 | 22.5 | 0.00 | 0.00 | 0.00 | 44 | 1015.7 |
| 20260901213055 | 23 | 99 | 9.7 | 25.7 | 0.00 | 0.00 | 0.00 | 44 | 1015.7 |
| 20260901211537 | 23 | 130 | 8.0 | 17.7 | 0.00 | 0.00 | 0.00 | 43 | 1015.6 |
| 20260901210038 | 23 | 117 | 4.8 | 19.3 | 0.00 | 0.00 | 0.00 | 47 | 1015.7 |
| 20260901204532 | 23 | 173 | 8.0 | 20.9 | 0.00 | 0.00 | 0.00 | 49 | 1015.7 |
| 20260901203042 | 23 | 121 | 6.4 | 16.1 | 0.00 | 0.00 | 0.00 | 42 | 1015.9 |
| 20260901201523 | 22 | 115 | 6.4 | 19.3 | 0.00 | 0.00 | 0.00 | 43 | 1016.1 |
| 20260901200005 | 22 | 92 | 3.2 | 16.1 | 0.00 | 0.00 | 0.00 | 44 | 1016.4 |
| 20260901194510 | 22 | 81 | 11.3 | 27.4 | 0.00 | 0.00 | 0.00 | 43 | 1016.4 |
| 20260901193017 | 22 | 94 | 8.0 | 19.3 | 0.00 | 0.00 | 0.00 | 45 | 1016.5 |
| 20260901191522 | 22 | 130 | 3.2 | 17.7 | 0.00 | 0.00 | 0.00 | 47 | 1016.4 |
| 20260901190024 | 21 | 18 | 4.8 | 17.7 | 0.00 | 0.00 | 0.00 | 50 | 1016.5 |
| 20260901184508 | 21 | 141 | 9.7 | 16.1 | 0.00 | 0.00 | 0.00 | 52 | 1016.6 |
| 20260901183012 | 19 | 129 | 4.8 | 19.3 | 0.00 | 0.00 | 0.00 | 62 | 1016.6 |
| 20260901181517 | 18 | 133 | 11.3 | 22.5 | 0.00 | 0.00 | 0.00 | 63 | 1016.7 |
| 20260901180023 | 18 | 123 | 9.7 | 17.7 | 0.00 | 0.00 | 0.00 | 66 | 1016.6 |
| 20260901174532 | 19 | 145 | 8.0 | 27.4 | 0.00 | 0.00 | 0.00 | 64 | 1016.3 |
| 20260901173006 | 20 | 349 | 4.8 | 27.4 | 0.00 | 0.00 | 0.00 | 55 | 1016.3 |
| 20260901171517 | 20 | 52 | 4.8 | 19.3 | 0.00 | 0.00 | 0.00 | 55 | 1016.2 |
| 20260901170020 | 20 | 115 | 3.2 | 20.9 | 0.00 | 0.00 | 0.00 | 56 | 1016.0 |
| 20260901164525 | 20 | 43 | 9.7 | 22.5 | 0.00 | 0.00 | 0.00 | 56 | 1015.9 |
| 20260901163029 | 20 | 76 | 11.3 | 20.9 | 0.00 | 0.00 | 0.00 | 58 | 1016.0 |
| 20260901161511 | 20 | 52 | 9.7 | 24.1 | 0.00 | 0.00 | 0.00 | 58 | 1015.9 |
| 20260901160012 | 19 | 92 | 4.8 | 16.1 | 0.00 | 0.00 | 0.00 | 60 | 1015.6 |
| 20260901154523 | 19 | 124 | 3.2 | 17.7 | 0.00 | 0.00 | 0.00 | 62 | 1015.5 |
| 20260901153024 | 18 | 307 | 4.8 | 17.7 | 0.00 | 0.00 | 0.00 | 62 | 1015.5 |
| 20260901151529 | 18 | 36 | 4.8 | 19.3 | 0.00 | 0.00 | 0.00 | 63 | 1015.1 |
| 20260901150013 | 18 | 96 | 6.4 | 19.3 | 0.00 | 0.00 | 0.00 | 66 | 1015.0 |
| 20260901144518 | 17 | 113 | 4.8 | 14.5 | 0.00 | 0.00 | 0.00 | 66 | 1014.8 |
| 20260901143028 | 17 | 65 | 8.0 | 16.1 | 0.00 | 0.00 | 0.00 | 67 | 1014.6 |
| 20260901141508 | 17 | 55 | 8.0 | 20.9 | 0.00 | 0.00 | 0.00 | 67 | 1014.5 |
| 20260901140014 | 16 | 96 | 4.8 | 14.5 | 0.00 | 0.00 | 0.00 | 69 | 1014.4 |
| 20260901134515 | 16 | 108 | 3.2 | 16.1 | 0.00 | 0.00 | 0.00 | 71 | 1014.3 |
| 20260901133026 | 16 | 104 | 4.8 | 19.3 | 0.00 | 0.00 | 0.00 | 70 | 1014.0 |
| 20260901131511 | 16 | 48 | 4.8 | 17.7 | 0.00 | 0.00 | 0.00 | 73 | 1014.0 |
| 20260901130010 | 16 | 131 | 4.8 | 11.3 | 0.00 | 0.00 | 0.00 | 75 | 1014.1 |
| 20260901124515 | 16 | 117 | 3.2 | 14.5 | 0.00 | 0.00 | 0.00 | 74 | 1014.0 |
| 20260901123020 | 16 | 117 | 1.6 | 16.1 | 0.00 | 0.00 | 0.00 | 74 | 1013.8 |
| 20260901121533 | 16 | 89 | 3.2 | 16.1 | 0.00 | 0.00 | 0.00 | 73 | 1013.6 |
| 20260901120014 | 16 | 117 | 4.8 | 12.9 | 0.00 | 0.00 | 0.00 | 73 | 1013.5 |
| 20260901114515 | 16 | 115 | 3.2 | 17.7 | 0.00 | 0.00 | 0.00 | 73 | 1013.6 |
| 20260901113016 | 16 | 103 | 4.8 | 19.3 | 0.00 | 0.00 | 0.00 | 73 | 1013.7 |
| 20260901111524 | 16 | 59 | 4.8 | 17.7 | 0.00 | 0.00 | 0.00 | 73 | 1013.7 |
| 20260901110033 | 16 | 105 | 6.4 | 14.5 | 0.00 | 0.00 | 0.00 | 73 | 1013.6 |
| 20260901104507 | 16 | 104 | 4.8 | 16.1 | 0.00 | 0.00 | 0.00 | 71 | 1013.4 |
| 20260901103013 | 16 | 74 | 8.0 | 19.3 | 0.00 | 0.00 | 0.00 | 71 | 1013.1 |
| 20260901101519 | 16 | 90 | 8.0 | 22.5 | 0.00 | 0.00 | 0.00 | 70 | 1013.1 |
| 20260901100026 | 16 | 82 | 8.0 | 17.7 | 0.00 | 0.00 | 0.00 | 69 | 1013.1 |
| 20260901094529 | 16 | 96 | 8.0 | 20.9 | 0.00 | 0.00 | 0.00 | 69 | 1013.2 |
| 20260901093006 | 16 | 92 | 11.3 | 22.5 | 0.00 | 0.00 | 0.00 | 68 | 1013.2 |
| 20260901091514 | 16 | 126 | 4.8 | 24.1 | 0.00 | 0.00 | 0.00 | 68 | 1013.4 |
| 20260901090021 | 16 | 84 | 8.0 | 27.4 | 0.00 | 0.00 | 0.00 | 69 | 1013.4 |
| 20260901084523 | 16 | 125 | 8.0 | 22.5 | 0.00 | 0.00 | 0.00 | 69 | 1013.4 |
| 20260901083031 | 16 | 81 | 4.8 | 22.5 | 0.00 | 0.00 | 0.00 | 69 | 1013.5 |
| 20260901081540 | 16 | 138 | 3.2 | 14.5 | 0.00 | 0.00 | 0.00 | 69 | 1013.5 |
| 20260901080018 | 16 | 86 | 6.4 | 20.9 | 0.00 | 0.00 | 0.00 | 68 | 1013.5 |
| 20260901074523 | 16 | 86 | 8.0 | 30.6 | 0.00 | 0.00 | 0.00 | 68 | 1013.3 |
| 20260901073030 | 16 | 113 | 8.0 | 22.5 | 0.00 | 0.00 | 0.00 | 68 | 1013.5 |
| 20260901071532 | 16 | 67 | 12.9 | 25.7 | 0.00 | 0.00 | 0.00 | 68 | 1013.3 |
| 20260901070035 | 16 | 91 | 9.7 | 29.0 | 0.00 | 0.00 | 0.00 | 68 | 1013.3 |
| 20260901064529 | 16 | 82 | 6.4 | 25.7 | 0.00 | 0.00 | 0.00 | 68 | 1013.3 |
| 20260901063030 | 16 | 66 | 12.9 | 30.6 | 0.00 | 0.00 | 0.00 | 68 | 1013.3 |
| 20260901061534 | 16 | 94 | 8.0 | 22.5 | 0.00 | 0.00 | 0.00 | 69 | 1013.4 |
| 20260901060034 | 16 | 78 | 9.7 | 24.1 | 0.00 | 0.00 | 0.00 | 69 | 1013.6 |
| 20260901054535 | 16 | 140 | 4.8 | 27.4 | 0.00 | 0.00 | 0.00 | 69 | 1013.5 |
| 20260901053025 | 16 | 125 | 6.4 | 19.3 | 0.00 | 0.00 | 0.00 | 70 | 1013.4 |
| 20260901051527 | 16 | 129 | 9.7 | 29.0 | 0.00 | 0.00 | 0.00 | 69 | 1013.5 |
| 20260901050030 | 16 | 124 | 9.7 | 19.3 | 0.00 | 0.00 | 0.00 | 69 | 1013.3 |
| 20260901044533 | 16 | 139 | 8.0 | 20.9 | 0.00 | 0.00 | 0.00 | 69 | 1013.4 |
| 20260901043036 | 16 | 98 | 8.0 | 27.4 | 0.00 | 0.00 | 0.00 | 69 | 1013.3 |
| 20260901041526 | 16 | 195 | 8.0 | 25.7 | 0.00 | 0.00 | 0.00 | 69 | 1013.2 |
| 20260901040032 | 16 | 130 | 6.4 | 22.5 | 0.00 | 0.00 | 0.00 | 69 | 1013.2 |